This is the latest recevied weather packets stored in our database for station/object F5LKO-13. If no packets are shown the sender has not sent any weather packets the latest 10 day(s).
| Time | Temp. | Humidity | Pressure | Rain* | Wind** | Luminosity | Snow |
|---|---|---|---|---|---|---|---|
| 1777556196 | 26.11° C | 99% | 1018.2 hPa | 0 mm | - | 69 W/m² | - |
| 1777555898 | 26.11° C | 99% | 1018.2 hPa | 0 mm | - | 70 W/m² | - |
| 1777555584 | 26.11° C | 99% | 1018.3 hPa | 0 mm | - | 74 W/m² | - |
| 1777555277 | 26.67° C | 99% | 1018.3 hPa | 0 mm | - | 73 W/m² | - |
| 1777554972 | 26.67° C | 99% | 1018.2 hPa | 0 mm | - | 71 W/m² | - |
| 1777554665 | 27.22° C | 99% | 1018.2 hPa | 0 mm | - | 77 W/m² | - |
| 1777554359 | 26.67° C | 99% | 1018.2 hPa | 0 mm | - | 81 W/m² | - |
| 1777554062 | 28.33° C | 99% | 1018.1 hPa | 0 mm | - | 99 W/m² | - |
| 1777553746 | 28.33° C | 99% | 1018 hPa | 0 mm | - | 83 W/m² | - |
| 1777553440 | 27.78° C | 99% | 1018.1 hPa | 0 mm | - | 88 W/m² | - |
| 1777553134 | 28.89° C | 99% | 1018 hPa | 0 mm | - | 94 W/m² | - |
| 1777552828 | 28.89° C | 99% | 1018 hPa | 0 mm | - | 96 W/m² | - |
| 1777552522 | 27.78° C | 99% | 1018 hPa | 0 mm | - | 95 W/m² | - |
| 1777552225 | 28.33° C | 99% | 1018 hPa | 0 mm | - | 93 W/m² | - |
| 1777551910 | 28.89° C | 99% | 1018 hPa | 0 mm | - | 94 W/m² | - |
| 1777551604 | 28.89° C | 99% | 1017.9 hPa | 0 mm | - | 91 W/m² | - |
| 1777551298 | 28.89° C | 99% | 1017.8 hPa | 0 mm | - | 87 W/m² | - |
| 1777550992 | 28.89° C | 99% | 1017.8 hPa | 0 mm | - | 89 W/m² | - |
| 1777550687 | 28.89° C | 99% | 1017.8 hPa | 0 mm | - | 89 W/m² | - |
| 1777550389 | 28.89° C | 99% | 1017.8 hPa | 0 mm | - | 90 W/m² | - |
| 1777550074 | 30° C | 99% | 1017.9 hPa | 0 mm | - | 94 W/m² | - |
| 1777549768 | 29.44° C | 99% | 1017.9 hPa | 0 mm | - | 18 W/m² | - |
| 1777549462 | 27.78° C | 99% | 1017.9 hPa | 0 mm | - | 96 W/m² | - |
| 1777549156 | 28.33° C | 99% | 1017.9 hPa | 0 mm | - | 97 W/m² | - |
| 1777548850 | 27.78° C | 99% | 1017.9 hPa | 0 mm | - | 5 W/m² | - |
* Rain latest hour (hover to see other rain measurements)
** Current wind speed in m/s (hover to see current wind gust speed)